Home   Weather   Dundee   Past weeks

Flag for United Kingdom Past Weather in Dundee, Scotland, United Kingdom — Yesterday and Last 2 Weeks

Now
48 °F

Scattered clouds.


Feels Like: 41 °F
Forecast: 35 / 47 °F
Wind: 22 mph from West

Location: Dundee / Riverside

Current Time: Apr 24, 2017 at 12:37:47 pm

Latest Report: Apr 24, 2017 at 11:50 am


Visibility: N/A

Pressure: 29.83 "Hg

Humidity: 43%

Dew Point: 27 °F

Location of DundeeLocation

Past Weather in Dundee — Graph

°F

Dundee Temperature Yesterday

Maximum temperature yesterday: 57 °F (at 3:20 pm)
Minimum temperature yesterday: 45 °F (at 8:50 am)
Average temperature yesterday: 53 °F

High & Low Weather Summary for the Past Weeks

 TemperatureHumidityPressure
High64 °F (Apr 20, 2:20 pm)93% (Apr 14, 7:20 am)30.54 "Hg (Apr 14, 7:20 am)
Low37 °F (Apr 18, 8:20 am)35% (Apr 22, 1:20 pm)29.74 "Hg (Apr 14, 5:20 pm)
Average51 °F64%30.13 "Hg
* Reported Apr 9 11:20 am — Apr 24 11:20 am, Dundee, Weather by CustomWeather, © 2017

Note: Actual official high and low records may vary slightly from our data, if they occured in-between our weather recording intervals... More about our weather records

Advertising

Dundee Weather History for the Previous 24 Hours

Scroll right to see more
 ConditionsComfort  
Time TempWeatherWind HumidityBarometerVisibility
11:20 am
Mon, Apr 24
48 °FScattered clouds.21 mph43%29.83 "HgN/A
10:50 am48 °FPassing clouds.21 mph50%29.86 "HgN/A
10:20 am48 °FPassing clouds.15 mph50%29.86 "HgN/A
9:50 am46 °FPassing clouds.13 mph53%29.89 "HgN/A
9:20 am46 °FPassing clouds.13 mph62%29.89 "HgN/A
8:50 am46 °FPassing clouds.14 mph66%29.89 "HgN/A
8:20 am45 °FPassing clouds.13 mph66%29.92 "HgN/A
7:50 am43 °FPassing clouds.12 mph76%29.92 "HgN/A
7:20 am45 °FPassing clouds.10 mph76%29.92 "HgN/A
6:50 am39 °FPassing clouds.10 mph81%29.92 "HgN/A
8:20 pm
Sun, Apr 23
50 °FSunny.20 mph67%30.01 "Hg10 mi
7:50 pm52 °FPassing clouds.17 mph54%30.01 "HgN/A
7:20 pm54 °FPassing clouds.18 mph54%30.01 "HgN/A
6:50 pm55 °FPassing clouds.20 mph51%30.01 "HgN/A
6:20 pm55 °FPassing clouds.22 mph47%30.04 "HgN/A
5:50 pm57 °FPassing clouds.21 mph51%30.04 "HgN/A
5:20 pm55 °FPassing clouds.23 mph47%30.04 "HgN/A
4:50 pm55 °FPassing clouds.26 mph59%30.07 "HgN/A
4:20 pm55 °FPassing clouds.24 mph59%30.07 "HgN/A
3:50 pm55 °FPassing clouds.21 mph51%30.09 "HgN/A
3:20 pm57 °FPassing clouds.20 mph55%30.09 "HgN/A
2:50 pm55 °FPassing clouds.20 mph55%30.12 "HgN/A
2:20 pm55 °FPassing clouds.20 mph55%30.12 "HgN/A
1:50 pm55 °FPassing clouds.18 mph55%30.15 "HgN/A
1:20 pm54 °FPassing clouds.15 mph63%30.15 "HgN/A
12:50 pm54 °FPassing clouds.13 mph63%30.18 "HgN/A
12:20 pm54 °FPassing clouds.10 mph58%30.18 "HgN/A
Weather by CustomWeather, © 2017

See weather overviewHow to use our weather pages